South Bend, IN

11:36 AM EST on January 19, 2018 (GMT -0500)
South Bend Regional

Weather History for KSBN - January, 2013

Change the Weather History Date:

Saturday, January 19, 2013

  Actual Average Record
Temperature  
Mean Temperature 42 °F 24 °F  
Max Temperature 48 °F 31 °F 60 °F (1907)
Min Temperature 36 °F 17 °F -21 °F (1994)
Degree Days  
Heating Degree Days 23 41  
Month to date heating degree days 669 771  
Since 1 July heating degree days 2869 3162  
Cooling Degree Days 0 0  
Month to date cooling degree days 0 0  
Year to date cooling degree days 0 0  
Moisture  
Dew Point 29 °F    
Average Humidity 62    
Maximum Humidity 73    
Minimum Humidity 50    
Precipitation  
Precipitation 0.00 in 0.07 in 1.00 in (1933)
Month to date precipitation 1.27 1.51  
Year to date precipitation 1.27 1.51  
Snow  
Snow 0.00 in 0.70 in 5.70 in (2012)
Month to date snowfall 0.3 12.4  
Since 1 July snowfall 9.4 34.9  
Snow Depth 0.00 in    
Sea Level Pressure  
Sea Level Pressure 29.88 in    
Wind  
Wind Speed 19 mph (SW)    
Max Wind Speed 32 mph    
Max Gust Speed 48 mph    
Visibility 10 miles    
Events      
T = Trace of Precipitation, MM = Missing Value Source: NWS Daily Summary

Daily Weather History Graph

Daily Weather History Graph

Search for Another Location

Airport or City:

Trip Planner

Search our weather history database for the weather conditions in past years. The results will help you decide how hot, cold, wet, or windy it might be!

Date:

Astronomy

Jan. 19, 2013 Rise Set
Actual Time 8:07 AM EST 5:44 PM EST
Civil Twilight 7:37 AM EST 6:15 PM EST
Nautical Twilight 7:03 AM EST 6:49 PM EST
Astronomical Twilight 6:30 AM EST 7:22 PM EST
Moon 12:11 PM EST 1:40 AM EST
Length of Visible Light 10h 37m
Length of Day
9h 37m
First Quarter, 57% of the Moon is Illuminated
Jan 19
First Quarter
Jan 26
Full
Feb 3
Last Quarter
Feb 10
New
Feb 17
First Quarter

Hourly Weather History & Observations

Time (EST) Temp. Windchill Dew Point Humidity Pressure Visibility Wind Dir Wind Speed Gust Speed Precip Events Conditions
12:54 AM 37.9 °F 26.8 °F 25.0 °F 60% 29.99 in 10.0 mi SW 24.2 mph 28.8 mph N/A   Clear
1:54 AM 37.9 °F 28.2 °F 26.1 °F 62% 29.98 in 10.0 mi SW 18.4 mph 28.8 mph N/A   Clear
2:54 AM 37.9 °F 28.2 °F 26.1 °F 62% 30.00 in 10.0 mi SW 18.4 mph 27.6 mph N/A   Clear
3:54 AM 37.9 °F 28.5 °F 27.0 °F 65% 29.99 in 10.0 mi SW 17.3 mph 29.9 mph N/A   Clear
4:54 AM 37.0 °F 26.7 °F 27.0 °F 67% 29.98 in 10.0 mi SW 19.6 mph 31.1 mph N/A   Clear
5:54 AM 37.0 °F 27.7 °F 27.0 °F 67% 29.98 in 10.0 mi SW 16.1 mph 27.6 mph N/A   Clear
6:54 AM 35.6 °F 25.5 °F 26.6 °F 70% 29.95 in 10.0 mi SW 17.3 mph - N/A   Clear
7:54 AM 36.0 °F 27.5 °F 27.0 °F 70% 29.96 in 10.0 mi SSW 12.7 mph - N/A   Clear
8:54 AM 37.0 °F 28.9 °F 28.0 °F 70% 29.96 in 10.0 mi SW 12.7 mph 21.9 mph N/A   Clear
9:54 AM 41.0 °F 31.4 °F 28.0 °F 60% 29.96 in 10.0 mi SW 21.9 mph 27.6 mph N/A   Clear
10:54 AM 43.0 °F 35.7 °F 28.9 °F 58% 29.95 in 10.0 mi SW 15.0 mph 27.6 mph N/A   Clear
11:54 AM 46.9 °F - 30.0 °F 52% 29.91 in 10.0 mi SW 23.0 mph 34.5 mph N/A   Clear
12:54 PM 46.0 °F 38.5 °F 30.0 °F 54% 29.86 in 10.0 mi SW 19.6 mph 31.1 mph N/A   Clear
1:54 PM 48.0 °F - 30.9 °F 52% 29.82 in 10.0 mi SW 21.9 mph 34.5 mph N/A   Clear
2:54 PM 46.9 °F - 30.9 °F 54% 29.79 in 10.0 mi SSW 21.9 mph 28.8 mph N/A   Clear
3:54 PM 46.9 °F - 32.0 °F 56% 29.79 in 10.0 mi SW 17.3 mph 27.6 mph N/A   Mostly Cloudy
4:54 PM 46.9 °F - 33.1 °F 59% 29.78 in 10.0 mi SW 17.3 mph 23.0 mph N/A   Scattered Clouds
5:54 PM 46.0 °F 38.3 °F 33.1 °F 61% 29.77 in 10.0 mi SW 20.7 mph 27.6 mph N/A   Clear
6:54 PM 44.1 °F 37.1 °F 33.1 °F 65% 29.78 in 10.0 mi SW 15.0 mph - N/A   Clear
7:54 PM 42.1 °F 35.2 °F 34.0 °F 73% 29.78 in 10.0 mi SW 12.7 mph - N/A   Clear
8:54 PM 41.0 °F 33.5 °F 34.0 °F 76% 29.77 in 10.0 mi SW 13.8 mph - N/A   Partly Cloudy
9:54 PM 42.1 °F 35.7 °F 34.0 °F 73% 29.75 in 10.0 mi WSW 11.5 mph - N/A   Overcast
10:54 PM 44.1 °F 33.8 °F 30.0 °F 58% 29.77 in 10.0 mi West 31.1 mph 41.4 mph N/A   Partly Cloudy
11:54 PM 39.9 °F 28.4 °F 26.1 °F 58% 29.77 in 10.0 mi West 29.9 mph 48.3 mph N/A   Scattered Clouds